Location: Atherton
(17.2661°S, 145.4859°E)
Time: 23:57:41
(UTC+10:00)

Vanguard 1 - Pass Details

Date: 24 June 2025
Orbit: 649 x 3822 km, 34.2° (Epoch: 17 July)

Event Time Altitude Azimuth Distance (km) Brightness Sun altitude
Rises 23:12:25 0° 243° (WSW) 5,057 - -72.9°
Reaches altitude 10° 23:17:34 10° 227° (SW) 3,447 - -74.0°
Maximum altitude 23:22:56 19° 184° (S) 2,255 - -75.2°
Drops below altitude 10° 23:26:55 10° 139° (SE) 2,444 - -76.0°
Sets 23:29:45 0° 119° (ESE) 3,156 - -76.6°
